| time (UTC) | temp F | wind direction | speed knots | gust knots | rain 1hr in | rain 24hr in | rain mn in | humidity % | barometer mb |
| 20260506124008 | 52 | 57 | 0.0 | 0.0 | 0.00 | 0.00 | 0.00 | 85 | 1019.1 |
| 20260506123510 | 52 | 57 | 0.0 | 0.0 | 0.00 | 0.00 | 0.00 | 85 | 1019.1 |
| 20260506123023 | 52 | 57 | 0.0 | 0.0 | 0.00 | 0.00 | 0.00 | 84 | 1019.1 |
| 20260506122510 | 52 | 57 | 0.0 | 2.6 | 0.00 | 0.00 | 0.00 | 84 | 1019.0 |
| 20260506122012 | 52 | 57 | 0.0 | 2.6 | 0.00 | 0.00 | 0.00 | 84 | 1018.9 |
| 20260506121525 | 52 | 57 | 0.0 | 1.7 | 0.00 | 0.00 | 0.00 | 84 | 1018.8 |
| 20260506121004 | 53 | 52 | 0.0 | 1.7 | 0.00 | 0.00 | 0.00 | 84 | 1018.8 |
| 20260506120505 | 53 | 52 | 0.0 | 1.7 | 0.00 | 0.00 | 0.00 | 84 | 1018.7 |
| 20260506120009 | 53 | 48 | 0.0 | 1.7 | 0.00 | 0.00 | 0.00 | 85 | 1018.7 |
| 20260506115502 | 53 | 53 | 0.0 | 1.7 | 0.00 | 0.00 | 0.00 | 85 | 1018.7 |
| 20260506115009 | 53 | 67 | 0.0 | 1.7 | 0.00 | 0.00 | 0.00 | 84 | 1018.7 |
| 20260506114511 | 53 | 67 | 0.0 | 1.7 | 0.00 | 0.00 | 0.00 | 84 | 1018.7 |
| 20260506114011 | 53 | 82 | 0.0 | 1.7 | 0.00 | 0.00 | 0.00 | 85 | 1018.7 |
| 20260506113507 | 53 | 33 | 0.9 | 1.7 | 0.00 | 0.00 | 0.00 | 85 | 1018.7 |
| 20260506113026 | 52 | 26 | 0.0 | 1.7 | 0.00 | 0.00 | 0.00 | 85 | 1018.7 |
| 20260506112510 | 52 | 44 | 0.9 | 1.7 | 0.00 | 0.00 | 0.00 | 85 | 1018.7 |
| 20260506112013 | 52 | 49 | 0.9 | 1.7 | 0.00 | 0.00 | 0.00 | 85 | 1018.6 |
| 20260506111519 | 53 | 71 | 0.0 | 1.7 | 0.00 | 0.00 | 0.00 | 84 | 1018.7 |
| 20260506111013 | 53 | 46 | 0.0 | 2.6 | 0.00 | 0.00 | 0.00 | 85 | 1018.7 |
| 20260506110509 | 53 | 25 | 0.9 | 2.6 | 0.00 | 0.00 | 0.00 | 85 | 1018.7 |
| 20260506110008 | 53 | 32 | 0.0 | 2.6 | 0.00 | 0.00 | 0.00 | 85 | 1018.7 |
| 20260506105505 | 53 | 40 | 0.0 | 1.7 | 0.00 | 0.00 | 0.00 | 85 | 1018.7 |
| 20260506105007 | 53 | 44 | 0.0 | 2.6 | 0.00 | 0.00 | 0.00 | 85 | 1018.7 |
| 20260506104509 | 53 | 15 | 0.0 | 2.6 | 0.00 | 0.00 | 0.00 | 85 | 1018.7 |
| 20260506104006 | 53 | 11 | 0.0 | 1.7 | 0.00 | 0.00 | 0.00 | 85 | 1018.6 |
| 20260506103507 | 53 | 49 | 0.0 | 1.7 | 0.00 | 0.00 | 0.00 | 85 | 1018.5 |
| 20260506103014 | 53 | 28 | 0.0 | 1.7 | 0.00 | 0.00 | 0.00 | 85 | 1018.5 |
| 20260506102508 | 53 | 42 | 0.0 | 1.7 | 0.00 | 0.00 | 0.00 | 85 | 1018.4 |
| 20260506102011 | 53 | 34 | 0.9 | 2.6 | 0.00 | 0.00 | 0.00 | 85 | 1018.5 |
| 20260506101519 | 53 | 40 | 0.9 | 2.6 | 0.00 | 0.00 | 0.00 | 85 | 1018.5 |
| 20260506101007 | 53 | 24 | 0.0 | 2.6 | 0.00 | 0.00 | 0.00 | 86 | 1018.6 |
| 20260506100508 | 53 | 347 | 0.9 | 2.6 | 0.00 | 0.00 | 0.00 | 85 | 1018.5 |
| 20260506100027 | 53 | 60 | 0.9 | 2.6 | 0.00 | 0.00 | 0.00 | 85 | 1018.5 |
| 20260506095509 | 52 | 53 | 0.0 | 2.6 | 0.00 | 0.00 | 0.00 | 85 | 1018.5 |
| 20260506095006 | 52 | 36 | 0.0 | 2.6 | 0.00 | 0.00 | 0.00 | 85 | 1018.5 |
| 20260506094506 | 52 | 344 | 0.0 | 1.7 | 0.00 | 0.00 | 0.00 | 85 | 1018.5 |
| 20260506094005 | 53 | 85 | 0.0 | 1.7 | 0.00 | 0.00 | 0.00 | 84 | 1018.6 |
| 20260506093506 | 53 | 81 | 0.0 | 1.7 | 0.00 | 0.00 | 0.00 | 84 | 1018.7 |
| 20260506093011 | 54 | 79 | 0.0 | 1.7 | 0.00 | 0.00 | 0.00 | 84 | 1018.7 |
| 20260506092507 | 54 | 61 | 0.0 | 1.7 | 0.00 | 0.00 | 0.00 | 84 | 1018.7 |
| 20260506092010 | 54 | 64 | 0.0 | 1.7 | 0.00 | 0.00 | 0.00 | 84 | 1018.8 |
| 20260506091519 | 54 | 39 | 0.0 | 1.7 | 0.00 | 0.00 | 0.00 | 85 | 1018.7 |
| 20260506091009 | 54 | 55 | 0.0 | 1.7 | 0.00 | 0.00 | 0.00 | 85 | 1018.8 |
| 20260506090510 | 54 | 55 | 0.0 | 1.7 | 0.00 | 0.00 | 0.00 | 85 | 1018.8 |
| 20260506090035 | 54 | 46 | 0.0 | 1.7 | 0.00 | 0.00 | 0.00 | 85 | 1018.9 |
| 20260506085511 | 54 | 67 | 0.0 | 0.9 | 0.00 | 0.00 | 0.00 | 85 | 1018.8 |
| 20260506085009 | 53 | 67 | 0.0 | 0.9 | 0.00 | 0.00 | 0.00 | 84 | 1018.8 |
| 20260506084526 | 53 | 67 | 0.0 | 1.7 | 0.00 | 0.00 | 0.00 | 84 | 1018.9 |
| 20260506084009 | 54 | 67 | 0.0 | 1.7 | 0.00 | 0.00 | 0.00 | 83 | 1019.0 |
| 20260506083506 | 54 | 67 | 0.0 | 1.7 | 0.00 | 0.00 | 0.00 | 83 | 1018.9 |
| 20260506083011 | 55 | 53 | 0.0 | 1.7 | 0.00 | 0.00 | 0.00 | 84 | 1018.9 |
| 20260506082506 | 55 | 53 | 0.0 | 1.7 | 0.00 | 0.00 | 0.00 | 83 | 1018.8 |
| 20260506082007 | 55 | 29 | 0.0 | 1.7 | 0.00 | 0.00 | 0.00 | 83 | 1018.9 |
| 20260506081518 | 55 | 28 | 0.0 | 2.6 | 0.00 | 0.00 | 0.00 | 83 | 1018.9 |
| 20260506081008 | 55 | 49 | 0.9 | 2.6 | 0.00 | 0.00 | 0.00 | 83 | 1018.9 |
| 20260506080509 | 55 | 46 | 0.0 | 2.6 | 0.00 | 0.00 | 0.00 | 83 | 1019.1 |
| 20260506073511 | 55 | 43 | 0.9 | 2.6 | 0.00 | 0.00 | 0.00 | 84 | 1018.8 |
| 20260506073028 | 55 | 42 | 0.9 | 2.6 | 0.00 | 0.00 | 0.00 | 84 | 1018.8 |
| 20260506072511 | 55 | 52 | 0.9 | 1.7 | 0.00 | 0.00 | 0.00 | 84 | 1018.7 |
| 20260506072008 | 55 | 51 | 0.9 | 1.7 | 0.00 | 0.00 | 0.00 | 84 | 1018.8 |
| 20260506071511 | 55 | 50 | 0.9 | 1.7 | 0.00 | 0.00 | 0.00 | 84 | 1018.7 |
| 20260506071007 | 55 | 36 | 0.0 | 1.7 | 0.00 | 0.00 | 0.00 | 84 | 1018.7 |
| 20260506070506 | 55 | 60 | 0.0 | 1.7 | 0.00 | 0.00 | 0.00 | 84 | 1018.6 |
| 20260506062511 | 55 | 57 | 0.0 | 1.7 | 0.00 | 0.00 | 0.00 | 83 | 1018.1 |
| 20260506062013 | 55 | 57 | 0.0 | 1.7 | 0.00 | 0.00 | 0.00 | 83 | 1018.2 |
| 20260506061520 | 56 | 57 | 0.0 | 1.7 | 0.00 | 0.00 | 0.00 | 83 | 1018.2 |
| 20260506061009 | 56 | 62 | 0.0 | 1.7 | 0.00 | 0.00 | 0.00 | 83 | 1018.1 |
| 20260506060507 | 56 | 62 | 0.0 | 1.7 | 0.00 | 0.00 | 0.00 | 82 | 1018.1 |
| 20260506051005 | 57 | 57 | 0.0 | 1.7 | 0.00 | 0.00 | 0.00 | 82 | 1017.9 |
| 20260506050511 | 57 | 98 | 0.0 | 1.7 | 0.00 | 0.00 | 0.00 | 82 | 1017.8 |
| 20260506045002 | 57 | 76 | 0.0 | 1.7 | 0.00 | 0.00 | 0.00 | 82 | 1017.7 |
| 20260506044506 | 57 | 88 | 0.0 | 1.7 | 0.00 | 0.00 | 0.00 | 82 | 1017.6 |
| 20260506044003 | 57 | 81 | 0.0 | 1.7 | 0.00 | 0.00 | 0.00 | 82 | 1017.6 |
| 20260506043503 | 57 | 71 | 0.0 | 1.7 | 0.00 | 0.00 | 0.00 | 82 | 1017.5 |
| 20260506043006 | 57 | 105 | 0.0 | 2.6 | 0.00 | 0.00 | 0.00 | 82 | 1017.4 |
| 20260506042505 | 58 | 92 | 0.0 | 2.6 | 0.00 | 0.00 | 0.00 | 81 | 1017.4 |
| 20260506042006 | 58 | 53 | 0.0 | 2.6 | 0.00 | 0.00 | 0.00 | 81 | 1017.3 |
| 20260506041509 | 58 | 84 | 0.9 | 2.6 | 0.00 | 0.00 | 0.00 | 80 | 1017.3 |
| 20260506041007 | 58 | 67 | 0.9 | 1.7 | 0.00 | 0.00 | 0.00 | 80 | 1017.2 |
| 20260506040505 | 58 | 86 | 0.9 | 2.6 | 0.00 | 0.00 | 0.00 | 80 | 1017.1 |
| 20260506040013 | 58 | 74 | 0.9 | 2.6 | 0.00 | 0.00 | 0.00 | 80 | 1017.0 |
| 20260506035507 | 58 | 78 | 0.9 | 3.5 | 0.00 | 0.00 | 0.00 | 79 | 1016.9 |
| 20260506035011 | 59 | 93 | 0.0 | 2.6 | 0.00 | 0.00 | 0.00 | 78 | 1016.8 |
| 20260506034517 | 59 | 146 | 0.0 | 1.7 | 0.00 | 0.00 | 0.00 | 78 | 1016.7 |
| 20260506034004 | 59 | 227 | 0.0 | 1.7 | 0.00 | 0.00 | 0.00 | 77 | 1016.6 |
| 20260506033503 | 59 | 227 | 0.0 | 1.7 | 0.00 | 0.00 | 0.00 | 77 | 1016.6 |
| 20260506033005 | 59 | 229 | 0.0 | 1.7 | 0.00 | 0.00 | 0.00 | 76 | 1016.5 |
| 20260506032503 | 60 | 211 | 0.0 | 1.7 | 0.00 | 0.00 | 0.00 | 75 | 1016.4 |
| 20260506032008 | 60 | 224 | 0.9 | 1.7 | 0.00 | 0.00 | 0.00 | 75 | 1016.3 |
| 20260506031508 | 60 | 173 | 0.0 | 1.7 | 0.00 | 0.00 | 0.00 | 75 | 1016.3 |
| 20260506031009 | 60 | 220 | 0.9 | 1.7 | 0.00 | 0.00 | 0.00 | 74 | 1016.1 |
| 20260506030506 | 60 | 223 | 0.9 | 1.7 | 0.00 | 0.00 | 0.00 | 74 | 1016.1 |
| 20260506030015 | 61 | 215 | 0.0 | 1.7 | 0.00 | 0.00 | 0.00 | 73 | 1016.1 |
| 20260506025506 | 61 | 207 | 0.9 | 2.6 | 0.00 | 0.00 | 0.00 | 72 | 1016.0 |
| 20260506025011 | 61 | 219 | 0.0 | 2.6 | 0.00 | 0.00 | 0.00 | 72 | 1015.8 |
| 20260506024537 | 61 | 125 | 0.0 | 1.7 | 0.00 | 0.00 | 0.00 | 71 | 1015.7 |
| 20260506024012 | 62 | 202 | 0.0 | 1.7 | 0.00 | 0.00 | 0.00 | 71 | 1015.6 |
| 20260506023508 | 62 | 219 | 0.9 | 2.6 | 0.00 | 0.00 | 0.00 | 70 | 1015.6 |
| 20260506023004 | 62 | 215 | 0.9 | 2.6 | 0.00 | 0.00 | 0.00 | 69 | 1015.5 |
| 20260506022503 | 62 | 157 | 0.9 | 2.6 | 0.00 | 0.00 | 0.00 | 69 | 1015.4 |
| 20260506022004 | 63 | 195 | 0.0 | 2.6 | 0.00 | 0.00 | 0.00 | 70 | 1015.4 |
| 20260506021507 | 63 | 219 | 0.9 | 1.7 | 0.00 | 0.00 | 0.00 | 69 | 1015.3 |
| 20260506021004 | 63 | 209 | 0.0 | 1.7 | 0.00 | 0.00 | 0.00 | 69 | 1015.3 |
| 20260506020504 | 63 | 194 | 0.0 | 2.6 | 0.00 | 0.00 | 0.00 | 69 | 1015.3 |
| 20260506020009 | 63 | 216 | 0.0 | 3.5 | 0.00 | 0.00 | 0.00 | 69 | 1015.3 |
| 20260506015508 | 63 | 230 | 1.7 | 3.5 | 0.00 | 0.00 | 0.00 | 69 | 1015.2 |
| 20260506015008 | 63 | 209 | 0.9 | 3.5 | 0.00 | 0.00 | 0.00 | 68 | 1015.2 |
| 20260506014514 | 63 | 220 | 0.9 | 3.5 | 0.00 | 0.00 | 0.00 | 69 | 1015.2 |
| 20260506014010 | 63 | 215 | 0.9 | 3.5 | 0.00 | 0.00 | 0.00 | 69 | 1015.2 |
| 20260506013509 | 64 | 192 | 1.7 | 3.5 | 0.00 | 0.00 | 0.00 | 69 | 1015.1 |
| 20260506013021 | 64 | 134 | 0.9 | 3.5 | 0.00 | 0.00 | 0.00 | 69 | 1015.1 |
| 20260506012507 | 64 | 225 | 1.7 | 4.3 | 0.00 | 0.00 | 0.00 | 69 | 1015.2 |
| 20260506012003 | 64 | 184 | 0.9 | 4.3 | 0.00 | 0.00 | 0.00 | 69 | 1015.3 |
| 20260506011506 | 64 | 229 | 1.7 | 4.3 | 0.00 | 0.00 | 0.00 | 1015.2 | |
| 20260506011006 | 64 | 208 | 1.7 | 4.3 | 0.00 | 0.00 | 0.00 | 1015.2 | |
| 20260506010502 | 64 | 191 | 1.7 | 4.3 | 0.00 | 0.00 | 0.00 | 1015.1 | |
| 20260506010008 | 64 | 224 | 1.7 | 4.3 | 0.00 | 0.00 | 0.00 | 1015.1 | |
| 20260506005505 | 64 | 204 | 0.9 | 5.2 | 0.00 | 0.00 | 0.00 | 68 | 1015.2 |
| 20260506005007 | 64 | 200 | 1.7 | 5.2 | 0.00 | 0.00 | 0.00 | 68 | 1015.1 |
| 20260506004512 | 64 | 215 | 1.7 | 6.1 | 0.00 | 0.00 | 0.00 | 67 | 1015.1 |
| 20260506004005 | 64 | 224 | 1.7 | 6.1 | 0.00 | 0.00 | 0.00 | 68 | 1015.1 |
| 20260506003509 | 63 | 211 | 1.7 | 4.3 | 0.00 | 0.00 | 0.00 | 69 | 1015.1 |
| 20260506003020 | 63 | 212 | 2.6 | 7.0 | 0.00 | 0.00 | 0.00 | 68 | 1015.1 |
| 20260506002511 | 63 | 212 | 2.6 | 7.0 | 0.00 | 0.00 | 0.00 | 68 | 1015.1 |
| 20260506002010 | 64 | 213 | 1.7 | 6.1 | 0.00 | 0.00 | 0.00 | 68 | 1015.1 |
| 20260506001524 | 64 | 213 | 2.6 | 6.1 | 0.00 | 0.00 | 0.00 | 68 | 1015.1 |
| 20260506001003 | 64 | 207 | 1.7 | 6.1 | 0.00 | 0.00 | 0.00 | 67 | 1015.1 |
| 20260506000506 | 65 | 207 | 2.6 | 7.0 | 0.00 | 0.00 | 0.00 | 67 | 1015.1 |
| 20260506000008 | 65 | 211 | 2.6 | 7.8 | 0.00 | 0.00 | 0.00 | 66 | 1015.0 |
| 20260505235505 | 66 | 296 | 2.6 | 7.8 | 0.00 | 0.00 | 0.00 | 64 | 1015.0 |
| 20260505235005 | 67 | 200 | 3.5 | 7.8 | 0.00 | 0.00 | 0.00 | 63 | 1014.9 |
| 20260505234512 | 67 | 207 | 3.5 | 7.8 | 0.00 | 0.00 | 0.00 | 64 | 1014.9 |
| 20260505234006 | 67 | 240 | 4.3 | 7.8 | 0.00 | 0.00 | 0.00 | 62 | 1014.9 |
| 20260505233507 | 68 | 232 | 2.6 | 6.1 | 0.00 | 0.00 | 0.00 | 62 | 1014.9 |
| 20260505233015 | 68 | 284 | 0.9 | 6.1 | 0.00 | 0.00 | 0.00 | 64 | 1014.9 |
| 20260505232512 | 66 | 215 | 2.6 | 6.1 | 0.00 | 0.00 | 0.00 | 64 | 1014.9 |
| 20260505232006 | 66 | 352 | 1.7 | 6.1 | 0.00 | 0.00 | 0.00 | 62 | 1014.9 |
| 20260505231524 | 67 | 29 | 1.7 | 7.8 | 0.00 | 0.00 | 0.00 | 62 | 1014.8 |
| 20260505231012 | 66 | 212 | 3.5 | 9.6 | 0.00 | 0.00 | 0.00 | 62 | 1014.8 |
| 20260505230509 | 67 | 238 | 3.5 | 9.6 | 0.00 | 0.00 | 0.00 | 61 | 1014.8 |
| 20260505230007 | 68 | 290 | 2.6 | 9.6 | 0.00 | 0.00 | 0.00 | 60 | 1014.9 |
| 20260505225504 | 68 | 246 | 2.6 | 9.6 | 0.00 | 0.00 | 0.00 | 59 | 1014.9 |
| 20260505225007 | 68 | 181 | 3.5 | 7.0 | 0.00 | 0.00 | 0.00 | 58 | 1014.9 |
| 20260505224510 | 69 | 304 | 3.5 | 7.8 | 0.00 | 0.00 | 0.00 | 59 | 1015.0 |
| 20260505224007 | 69 | 263 | 3.5 | 11.3 | 0.00 | 0.00 | 0.00 | 59 | 1015.1 |
| 20260505223510 | 68 | 273 | 4.3 | 11.3 | 0.00 | 0.00 | 0.00 | 61 | 1015.1 |
| 20260505223019 | 68 | 98 | 2.6 | 9.6 | 0.00 | 0.00 | 0.00 | 62 | 1015.2 |
| 20260505222509 | 67 | 232 | 3.5 | 8.7 | 0.00 | 0.00 | 0.00 | 63 | 1015.3 |
| 20260505222009 | 67 | 286 | 2.6 | 8.7 | 0.00 | 0.00 | 0.00 | 63 | 1015.3 |
| 20260505221523 | 68 | 227 | 3.5 | 8.7 | 0.00 | 0.00 | 0.00 | 62 | 1015.3 |
| 20260505221010 | 67 | 229 | 3.5 | 10.4 | 0.00 | 0.00 | 0.00 | 61 | 1015.3 |
| 20260505220509 | 67 | 203 | 5.2 | 10.4 | 0.00 | 0.00 | 0.00 | 61 | 1015.4 |
| 20260505220025 | 66 | 219 | 3.5 | 8.7 | 0.00 | 0.00 | 0.00 | 60 | 1015.4 |
| 20260505215509 | 67 | 190 | 3.5 | 9.6 | 0.00 | 0.00 | 0.00 | 60 | 1015.6 |
| 20260505215003 | 67 | 268 | 3.5 | 9.6 | 0.00 | 0.00 | 0.00 | 61 | 1015.6 |
| 20260505214508 | 68 | 269 | 3.5 | 9.6 | 0.00 | 0.00 | 0.00 | 57 | 1015.6 |
| 20260505214007 | 70 | 222 | 2.6 | 9.6 | 0.00 | 0.00 | 0.00 | 57 | 1015.7 |
| 20260505213507 | 69 | 223 | 4.3 | 9.6 | 0.00 | 0.00 | 0.00 | 55 | 1015.8 |
| 20260505213018 | 69 | 198 | 3.5 | 9.6 | 0.00 | 0.00 | 0.00 | 55 | 1015.9 |
| 20260505212507 | 69 | 217 | 3.5 | 9.6 | 0.00 | 0.00 | 0.00 | 56 | 1015.9 |
| 20260505212011 | 67 | 205 | 3.5 | 8.7 | 0.00 | 0.00 | 0.00 | 59 | 1015.9 |
| 20260505211521 | 68 | 218 | 2.6 | 7.8 | 0.00 | 0.00 | 0.00 | 56 | 1016.0 |
| 20260505211009 | 68 | 262 | 2.6 | 7.8 | 0.00 | 0.00 | 0.00 | 60 | 1016.0 |
| 20260505210510 | 67 | 238 | 2.6 | 8.7 | 0.00 | 0.00 | 0.00 | 60 | 1016.0 |
| 20260505210024 | 67 | 271 | 2.6 | 8.7 | 0.00 | 0.00 | 0.00 | 59 | 1016.0 |
| 20260505205513 | 67 | 220 | 2.6 | 7.8 | 0.00 | 0.00 | 0.00 | 57 | 1016.0 |
| 20260505205014 | 67 | 282 | 2.6 | 9.6 | 0.00 | 0.00 | 0.00 | 55 | 1016.0 |
| 20260505204527 | 68 | 207 | 3.5 | 10.4 | 0.00 | 0.00 | 0.00 | 56 | 1016.0 |
| 20260505204008 | 69 | 196 | 2.6 | 10.4 | 0.00 | 0.00 | 0.00 | 54 | 1015.9 |
| 20260505203504 | 69 | 202 | 2.6 | 10.4 | 0.00 | 0.00 | 0.00 | 57 | 1016.0 |
| 20260505203013 | 67 | 284 | 3.5 | 10.4 | 0.00 | 0.00 | 0.00 | 58 | 1016.1 |
| 20260505202507 | 66 | 211 | 3.5 | 7.8 | 0.00 | 0.00 | 0.00 | 58 | 1016.0 |
| 20260505202008 | 66 | 250 | 2.6 | 13.0 | 0.00 | 0.00 | 0.00 | 58 | 1016.1 |
| 20260505201517 | 67 | 295 | 3.5 | 13.0 | 0.00 | 0.00 | 0.00 | 57 | 1016.0 |
| 20260505201008 | 67 | 294 | 2.6 | 9.6 | 0.00 | 0.00 | 0.00 | 57 | 1016.0 |
| 20260505200509 | 67 | 185 | 3.5 | 7.0 | 0.00 | 0.00 | 0.00 | 55 | 1016.1 |
| 20260505200022 | 68 | 170 | 2.6 | 12.2 | 0.00 | 0.00 | 0.00 | 54 | 1016.1 |
| 20260505195505 | 69 | 227 | 4.3 | 11.3 | 0.00 | 0.00 | 0.00 | 54 | 1016.0 |
| 20260505195003 | 68 | 360 | 1.7 | 10.4 | 0.00 | 0.00 | 0.00 | 56 | 1016.0 |
| 20260505194506 | 68 | 223 | 1.7 | 7.0 | 0.00 | 0.00 | 0.00 | 54 | 1016.1 |
| 20260505194007 | 68 | 239 | 2.6 | 7.0 | 0.00 | 0.00 | 0.00 | 56 | 1016.1 |
| 20260505193508 | 68 | 207 | 3.5 | 9.6 | 0.00 | 0.00 | 0.00 | 55 | 1016.1 |
| 20260505193013 | 68 | 215 | 3.5 | 9.6 | 0.00 | 0.00 | 0.00 | 56 | 1016.1 |
| 20260505192511 | 67 | 205 | 1.7 | 7.0 | 0.00 | 0.00 | 0.00 | 56 | 1016.1 |
| 20260505192009 | 67 | 230 | 1.7 | 7.0 | 0.00 | 0.00 | 0.00 | 57 | 1016.2 |
| 20260505191519 | 66 | 221 | 2.6 | 6.1 | 0.00 | 0.00 | 0.00 | 56 | 1016.2 |
| 20260505191008 | 67 | 219 | 1.7 | 7.0 | 0.00 | 0.00 | 0.00 | 54 | 1016.2 |
| 20260505190507 | 67 | 218 | 1.7 | 7.0 | 0.00 | 0.00 | 0.00 | 54 | 1016.2 |
| 20260505190027 | 68 | 221 | 2.6 | 7.0 | 0.00 | 0.00 | 0.00 | 54 | 1016.1 |
| 20260505185512 | 67 | 222 | 2.6 | 7.0 | 0.00 | 0.00 | 0.00 | 55 | 1016.1 |
| 20260505185010 | 67 | 211 | 3.5 | 8.7 | 0.00 | 0.00 | 0.00 | 56 | 1016.1 |
| 20260505184510 | 67 | 204 | 4.3 | 8.7 | 0.00 | 0.00 | 0.00 | 56 | 1016.1 |
| 20260505184004 | 67 | 211 | 2.6 | 6.1 | 0.00 | 0.00 | 0.00 | 56 | 1016.1 |
| 20260505183503 | 67 | 251 | 3.5 | 6.1 | 0.00 | 0.00 | 0.00 | 54 | 1016.0 |
| 20260505183010 | 67 | 215 | 2.6 | 7.0 | 0.00 | 0.00 | 0.00 | 54 | 1016.0 |
| 20260505182507 | 68 | 246 | 3.5 | 7.0 | 0.00 | 0.00 | 0.00 | 52 | 1015.9 |
| 20260505182009 | 68 | 240 | 1.7 | 5.2 | 0.00 | 0.00 | 0.00 | 52 | 1015.9 |
| 20260505181513 | 68 | 9 | 2.6 | 7.0 | 0.00 | 0.00 | 0.00 | 52 | 1015.8 |
| 20260505181009 | 67 | 205 | 3.5 | 7.0 | 0.00 | 0.00 | 0.00 | 54 | 1015.9 |
| 20260505180508 | 67 | 224 | 2.6 | 7.0 | 0.00 | 0.00 | 0.00 | 55 | 1016.0 |
| 20260505180022 | 67 | 192 | 2.6 | 7.0 | 0.00 | 0.00 | 0.00 | 53 | 1015.9 |
| 20260505175510 | 67 | 209 | 2.6 | 7.0 | 0.00 | 0.00 | 0.00 | 55 | 1015.8 |
| 20260505175010 | 67 | 223 | 0.9 | 5.2 | 0.00 | 0.00 | 0.00 | 54 | 1015.9 |
| 20260505174524 | 67 | 186 | 0.9 | 5.2 | 0.00 | 0.00 | 0.00 | 56 | 1015.9 |
| 20260505174013 | 66 | 250 | 1.7 | 5.2 | 0.00 | 0.00 | 0.00 | 57 | 1015.8 |
| 20260505173509 | 66 | 227 | 1.7 | 5.2 | 0.00 | 0.00 | 0.00 | 58 | 1015.8 |
| 20260505173010 | 66 | 213 | 0.9 | 4.3 | 0.00 | 0.00 | 0.00 | 59 | 1015.9 |
| 20260505172507 | 65 | 196 | 1.7 | 4.3 | 0.00 | 0.00 | 0.00 | 60 | 1015.8 |
| 20260505172008 | 63 | 18 | 0.9 | 2.6 | 0.00 | 0.00 | 0.00 | 61 | 1015.8 |
| 20260505171512 | 63 | 111 | 0.9 | 2.6 | 0.00 | 0.00 | 0.00 | 62 | 1015.7 |
| 20260505171006 | 64 | 114 | 0.9 | 3.5 | 0.00 | 0.00 | 0.00 | 63 | 1015.7 |
| 20260505170509 | 64 | 300 | 0.9 | 3.5 | 0.00 | 0.00 | 0.00 | 64 | 1015.6 |
| 20260505170020 | 63 | 173 | 1.7 | 3.5 | 0.00 | 0.00 | 0.00 | 65 | 1015.7 |
| 20260505165509 | 64 | 264 | 0.9 | 1.7 | 0.00 | 0.00 | 0.00 | 64 | 1015.7 |
| 20260505165010 | 64 | 317 | 0.9 | 5.2 | 0.00 | 0.00 | 0.00 | 66 | 1015.6 |
| 20260505164526 | 64 | 166 | 0.9 | 5.2 | 0.00 | 0.00 | 0.00 | 65 | 1015.6 |
| 20260505164014 | 63 | 194 | 1.7 | 5.2 | 0.00 | 0.00 | 0.00 | 70 | 1015.5 |
| 20260505163510 | 63 | 229 | 0.9 | 3.5 | 0.00 | 0.00 | 0.00 | 69 | 1015.5 |
| 20260505163028 | 62 | 211 | 1.7 | 3.5 | 0.00 | 0.00 | 0.00 | 69 | 1015.5 |
| 20260505162505 | 61 | 223 | 1.7 | 2.6 | 0.00 | 0.00 | 0.00 | 71 | 1015.5 |
| 20260505162007 | 60 | 84 | 0.0 | 2.6 | 0.00 | 0.00 | 0.00 | 72 | 1015.5 |
| 20260505161510 | 60 | 138 | 0.9 | 3.5 | 0.00 | 0.00 | 0.00 | 73 | 1015.5 |
| 20260505161007 | 60 | 211 | 0.9 | 3.5 | 0.00 | 0.00 | 0.00 | 71 | 1015.4 |
| 20260505160509 | 61 | 222 | 0.0 | 2.6 | 0.00 | 0.00 | 0.00 | 72 | 1015.4 |
| 20260505153026 | 58 | 171 | 0.0 | 1.7 | 0.00 | 0.00 | 0.00 | 79 | 1015.3 |
| 20260505152508 | 58 | 214 | 0.0 | 1.7 | 0.00 | 0.00 | 0.00 | 80 | 1015.4 |
| 20260505152013 | 57 | 215 | 0.0 | 1.7 | 0.00 | 0.00 | 0.00 | 80 | 1015.3 |
| 20260505151511 | 56 | 46 | 0.0 | 1.7 | 0.00 | 0.00 | 0.00 | 81 | 1015.2 |
| 20260505151007 | 56 | 44 | 0.0 | 1.7 | 0.00 | 0.00 | 0.00 | 81 | 1015.3 |
| 20260505150507 | 56 | 41 | 0.0 | 1.7 | 0.00 | 0.00 | 0.00 | 81 | 1015.3 |
| 20260505140504 | 53 | 238 | 0.0 | 1.7 | 0.00 | 0.00 | 0.00 | 84 | 1015.0 |
| 20260505125009 | 53 | 235 | 0.0 | 1.7 | 0.00 | 0.00 | 0.00 | 85 | 1014.8 |
| 20260505124522 | 53 | 334 | 0.0 | 1.7 | 0.00 | 0.00 | 0.00 | 85 | 1014.9 |